FW2240 Weather Reports


time (UTC)temp
C
wind
direction
speed
KPH
gust
KPH
rain 1hr
cm
rain 24hr
cm
rain mn
cm
humidity
%
barometer
mb
20260503194603 21 248 0.0 4.8 0.00 0.00 0.00 60 1007.5
20260503193549 21 60 1.6 6.4 0.00 0.00 0.00 59 1007.5
20260503192553 21 54 1.6 6.4 0.00 0.00 0.00 59 1007.5
20260503192034 21 122 3.2 6.4 0.00 0.00 0.00 61 1007.5
20260503191253 20 44 3.2 6.4 0.00 0.00 0.00 61 1007.4
20260503190557 20 68 0.0 6.4 0.00 0.00 0.00 61 1007.4
20260503190107 20 248 0.0 6.4 0.00 0.00 0.00 62 1007.5
20260503185552 20 299 1.6 6.4 0.00 0.00 0.00 63 1007.5
20260503185045 21 99 3.2 6.4 0.00 0.00 0.00 63 1007.6
20260503184535 20 82 1.6 9.7 0.00 0.00 0.00 63 1007.5
20260503184032 20 139 3.2 9.7 0.00 0.00 0.00 65 1007.6
20260503183048 21 98 3.2 8.0 0.00 0.00 0.00 66 1007.6
20260503182536 21 67 1.6 8.0 0.00 0.00 0.00 64 1007.7
20260503181624 21 139 1.6 6.4 0.00 0.00 0.00 61 1007.7
20260503180736 21 72 1.6 4.8 0.00 0.00 0.00 62 1007.7
20260503180110 21 117 1.6 4.8 0.00 0.00 0.00 63 1007.8
20260503175554 21 107 0.0 4.8 0.00 0.00 0.00 63 1007.8
20260503175033 22 108 1.6 4.8 0.00 0.00 0.00 61 1007.9
20260503174056 22 139 0.0 3.2 0.00 0.00 0.00 60 1008.1
20260503173101 21 2 0.0 4.8 0.00 0.00 0.00 61 1008.3
20260503172543 21 162 0.0 4.8 0.00 0.00 0.00 61 1008.4
20260503171544 21 121 0.0 4.8 0.00 0.00 0.00 61 1008.4
20260503170607 20 352 0.0 4.8 0.00 0.00 0.00 63 1008.7
20260503140232 10 259 0.0 1.6 0.00 0.00 0.00 87 1008.7
20260503054557 14 213 0.0 0.0 0.00 0.03 0.03 73 1008.2
20260503053604 14 218 0.0 0.0 0.00 0.03 0.03 73 1008.1
20260503052636 15 228 0.0 0.0 0.00 0.03 0.03 77 1008.1
20260503041553 15 228 0.0 0.0 0.00 0.03 0.03 76 1007.9
20260503040604 15 228 0.0 0.0 0.00 0.03 0.03 75 1007.8
20260503040055 15 228 0.0 0.0 0.00 0.03 0.03 74 1007.7
20260503035103 15 228 0.0 0.0 0.00 0.03 0.03 73 1007.6
20260503034056 16 229 0.0 0.0 0.00 0.03 0.03 72 1007.3
20260503033552 16 229 0.0 0.0 0.00 0.03 0.03 72 1007.3
20260503033057 16 230 0.0 0.0 0.00 0.03 0.03 71 1007.2
20260503032055 17 231 0.0 0.0 0.00 0.03 0.03 70 1007.2
20260503031053 17 230 0.0 0.0 0.00 0.03 0.03 69 1007.1
20260503030554 17 230 0.0 0.0 0.00 0.03 0.03 68 1007.1
20260503025554 18 231 0.0 0.0 0.00 0.03 0.03 66 1007.1
20260503024608 18 231 0.0 0.0 0.00 0.03 0.03 63 1007.0
20260503023551 20 231 0.0 0.0 0.00 0.03 0.03 59 1007.1
20260503022934 22 231 0.0 0.0 0.00 0.03 0.03 54 1007.1
20260503022317 20 231 0.0 0.0 0.00 0.03 0.03 65 1009.2
20260503021651 19 231 0.0 0.0 0.00 0.03 0.03 73 1010.7
20260503021033 11 231 0.0 0.0 0.00 0.03 0.03 95 1011.7
20260503020415 11 231 0.0 0.0 0.00 0.03 0.03 90 1010.3
20260503015751 13 231 0.0 0.0 0.00 0.03 0.03 82 1010.0
20260503015128 13 231 0.0 0.0 0.00 0.03 0.03 84 1008.8
20260503014506 18 231 0.0 0.0 0.00 0.03 0.03 66 1008.7
20260503013838 19 231 0.0 0.0 0.00 0.03 0.03 68 1010.0
20260503013152 13 231 0.0 0.0 0.00 0.03 0.03 83 1011.3